VTK648 KLAX-UHPP

Flight info

Callsign VTK648
Flight time N/A
Altitude FL340
Route N0510F340 EHF J5 SUMMA J54 TOU J523 YZT Q902 ANN J195 BKA J605 MDO Q10 ENM G583 GEFAR B244 TUPAN
Aircraft A388/H-DGVW/C

Departure

Time N/A
Airport Los Angeles International Airport (KLAX)

Arrival

Time 2026-04-12 11:18
Airport Yelizovo Airport (UHPP)
Time Latitude Longitude Altitude Speed Heading
2026-04-12 03:07 34.34642 -118.65038 12021 ft 359 kts 333°
2026-04-12 03:07 34.36998 -118.66110 12482 ft 366 kts 333°
2026-04-12 03:07 34.39377 -118.67207 13069 ft 367 kts 332°
2026-04-12 03:07 34.41765 -118.68310 13655 ft 369 kts 332°
2026-04-12 03:08 34.44178 -118.69419 14090 ft 375 kts 332°
2026-04-12 03:08 34.46617 -118.70535 14629 ft 376 kts 333°
2026-04-12 03:08 34.49065 -118.71656 15158 ft 378 kts 332°
2026-04-12 03:08 34.51527 -118.72789 15646 ft 381 kts 332°
2026-04-12 03:09 34.54012 -118.73938 16114 ft 384 kts 332°
2026-04-12 03:09 34.56508 -118.75089 16639 ft 386 kts 332°
2026-04-12 03:09 34.59016 -118.76244 17142 ft 388 kts 332°
2026-04-12 03:09 34.61554 -118.77414 17586 ft 392 kts 332°
2026-04-12 03:10 34.64106 -118.78594 18096 ft 395 kts 332°
2026-04-12 03:10 34.66676 -118.79775 18548 ft 396 kts 332°
2026-04-12 03:10 34.69257 -118.80969 18894 ft 400 kts 332°
2026-04-12 03:10 34.71856 -118.82174 19312 ft 401 kts 332°
2026-04-12 03:11 34.74469 -118.83385 19711 ft 404 kts 331°
2026-04-12 03:11 34.77093 -118.84603 20084 ft 405 kts 331°
2026-04-12 03:11 34.79728 -118.85826 20460 ft 408 kts 332°
2026-04-12 03:11 34.82461 -118.86869 20829 ft 415 kts 337°
2026-04-12 03:12 34.85244 -118.87807 21168 ft 417 kts 337°
2026-04-12 03:12 34.88040 -118.88759 21557 ft 419 kts 336°
2026-04-12 03:12 34.90845 -118.89723 21956 ft 421 kts 336°
2026-04-12 03:12 34.93664 -118.90702 22280 ft 423 kts 336°
2026-04-12 03:13 34.96498 -118.91683 22642 ft 426 kts 336°
2026-04-12 03:13 34.99350 -118.92667 23031 ft 428 kts 336°
2026-04-12 03:13 35.02220 -118.93660 23278 ft 432 kts 336°
2026-04-12 03:13 35.05114 -118.94660 23633 ft 434 kts 336°
2026-04-12 03:14 35.08019 -118.95663 23969 ft 435 kts 336°
2026-04-12 03:14 35.10915 -118.96663 24425 ft 432 kts 335°
2026-04-12 03:14 35.13802 -118.97662 24730 ft 434 kts 335°
2026-04-12 03:14 35.16707 -118.98671 25019 ft 436 kts 335°
2026-04-12 03:15 35.19621 -118.99683 25337 ft 437 kts 335°
2026-04-12 03:15 35.22552 -119.00702 25643 ft 441 kts 335°
2026-04-12 03:15 35.25511 -119.01733 25972 ft 443 kts 335°
2026-04-12 03:15 35.28471 -119.02762 26356 ft 444 kts 335°
2026-04-12 03:16 35.31444 -119.03796 26717 ft 446 kts 335°
2026-04-12 03:16 35.34394 -119.04823 27086 ft 448 kts 335°
2026-04-12 03:16 35.37393 -119.05869 27459 ft 450 kts 335°
2026-04-12 03:16 35.40404 -119.06919 27840 ft 452 kts 335°
2026-04-12 03:17 35.43431 -119.07977 28185 ft 456 kts 334°
2026-04-12 03:17 35.46482 -119.09043 28580 ft 457 kts 335°
2026-04-12 03:17 35.49623 -119.09885 28961 ft 469 kts 343°
2026-04-12 03:17 35.52885 -119.10317 29350 ft 475 kts 345°
2026-04-12 03:18 35.56173 -119.10732 29716 ft 477 kts 345°
2026-04-12 03:18 35.59473 -119.11166 30081 ft 479 kts 345°
2026-04-12 03:18 35.62787 -119.11606 30455 ft 481 kts 345°
2026-04-12 03:18 35.66130 -119.12051 30687 ft 485 kts 345°
2026-04-12 03:19 35.69485 -119.12493 31069 ft 486 kts 345°
2026-04-12 03:19 35.72840 -119.12934 31414 ft 488 kts 345°
2026-04-12 03:19 35.76219 -119.13379 31751 ft 489 kts 345°
2026-04-12 03:19 35.79595 -119.13824 32072 ft 491 kts 345°
2026-04-12 03:20 35.82995 -119.14272 32411 ft 493 kts 345°
2026-04-12 03:20 35.86410 -119.14725 32613 ft 498 kts 345°
2026-04-12 03:20 35.89853 -119.15181 32945 ft 499 kts 345°
2026-04-12 03:20 35.93312 -119.15637 33288 ft 501 kts 345°
2026-04-12 03:21 35.96779 -119.16095 33611 ft 503 kts 345°
2026-04-12 03:21 36.00254 -119.16556 33907 ft 505 kts 345°
2026-04-12 03:21 36.07328 -119.17501 33921 ft 517 kts 345°
2026-04-12 03:22 36.14470 -119.18444 33930 ft 518 kts 345°
2026-04-12 03:22 36.21623 -119.19393 33927 ft 518 kts 345°
2026-04-12 03:23 36.28790 -119.20349 33921 ft 521 kts 344°
2026-04-12 03:23 36.35994 -119.21313 33926 ft 522 kts 345°
2026-04-12 03:24 36.43213 -119.22278 33936 ft 523 kts 345°
2026-04-12 03:24 36.50440 -119.23248 33923 ft 525 kts 344°
2026-04-12 03:25 36.57702 -119.24224 33940 ft 526 kts 344°
2026-04-12 03:25 36.64965 -119.25200 33954 ft 527 kts 344°
2026-04-12 03:26 36.72255 -119.26188 33943 ft 528 kts 344°
2026-04-12 03:26 36.79539 -119.27175 33941 ft 527 kts 344°
2026-04-12 03:27 36.86824 -119.28151 33939 ft 528 kts 344°
2026-04-12 03:27 36.94105 -119.29138 33941 ft 527 kts 344°
2026-04-12 03:28 37.01376 -119.30132 33938 ft 527 kts 344°
2026-04-12 03:28 37.08653 -119.31124 33972 ft 528 kts 345°
2026-04-12 03:29 37.15957 -119.32121 33936 ft 529 kts 345°
2026-04-12 03:29 37.23271 -119.33121 33941 ft 530 kts 345°
2026-04-12 03:30 37.30551 -119.34122 33935 ft 531 kts 345°
2026-04-12 03:30 37.37882 -119.35152 33933 ft 531 kts 345°
2026-04-12 03:31 37.45142 -119.36138 33933 ft 533 kts 345°
2026-04-12 03:31 37.52515 -119.37141 33937 ft 535 kts 345°
2026-04-12 03:32 37.59898 -119.38164 33955 ft 535 kts 345°
2026-04-12 03:32 37.67289 -119.39189 33945 ft 535 kts 345°
2026-04-12 03:33 37.74665 -119.40204 33942 ft 534 kts 346°
2026-04-12 03:33 37.82027 -119.41220 33917 ft 533 kts 346°
2026-04-12 03:34 37.89374 -119.42252 33905 ft 531 kts 346°
2026-04-12 03:34 37.96701 -119.43277 33873 ft 531 kts 347°
2026-04-12 03:35 38.04029 -119.44305 33871 ft 530 kts 346°
2026-04-12 03:35 38.11350 -119.45330 33859 ft 530 kts 348°
2026-04-12 03:36 38.18672 -119.46357 33843 ft 530 kts 348°
2026-04-12 03:36 38.25998 -119.47391 33835 ft 531 kts 348°
2026-04-12 03:37 38.33331 -119.48421 33834 ft 533 kts 348°
2026-04-12 03:37 38.40705 -119.49459 33833 ft 535 kts 348°
2026-04-12 03:38 38.48095 -119.50512 33854 ft 536 kts 348°
2026-04-12 03:38 38.55530 -119.51564 33811 ft 540 kts 349°
2026-04-12 03:39 38.62989 -119.52619 33820 ft 541 kts 349°
2026-04-12 03:39 38.70471 -119.53684 33794 ft 544 kts 349°
2026-04-12 03:40 38.77985 -119.54756 33822 ft 544 kts 349°
2026-04-12 03:40 38.85491 -119.55829 33824 ft 543 kts 349°
2026-04-12 03:41 38.92970 -119.56900 33809 ft 542 kts 349°
2026-04-12 03:41 39.00438 -119.57972 33802 ft 541 kts 349°
2026-04-12 03:42 39.07895 -119.59045 33775 ft 541 kts 349°
2026-04-12 03:42 39.15376 -119.60126 33782 ft 542 kts 349°
2026-04-12 03:43 39.22868 -119.61209 33792 ft 544 kts 349°
2026-04-12 03:43 39.30393 -119.62300 33798 ft 546 kts 349°
2026-04-12 03:44 39.37938 -119.63395 33786 ft 547 kts 349°
2026-04-12 03:44 39.45498 -119.64496 33823 ft 548 kts 350°
2026-04-12 03:45 39.53057 -119.65630 33803 ft 547 kts 347°
2026-04-12 03:45 39.60471 -119.67644 33793 ft 545 kts 344°
2026-04-12 03:46 39.67869 -119.69670 33782 ft 545 kts 344°
2026-04-12 03:46 39.75272 -119.71705 33779 ft 545 kts 344°
2026-04-12 03:47 39.82674 -119.73750 33790 ft 545 kts 344°
2026-04-12 03:47 39.90089 -119.75813 33764 ft 546 kts 344°
2026-04-12 03:48 39.97503 -119.77876 33761 ft 546 kts 344°
2026-04-12 03:48 40.04925 -119.79934 33771 ft 546 kts 344°
2026-04-12 03:49 40.12328 -119.81996 33756 ft 544 kts 344°
2026-04-12 03:49 40.19720 -119.84061 33771 ft 544 kts 344°
2026-04-12 03:50 40.27095 -119.86132 33779 ft 543 kts 344°
2026-04-12 03:50 40.34462 -119.88203 33768 ft 542 kts 344°
2026-04-12 03:51 40.41832 -119.90280 33770 ft 543 kts 344°
2026-04-12 03:51 40.49202 -119.92365 33778 ft 543 kts 344°
2026-04-12 03:52 40.56570 -119.94453 33798 ft 542 kts 344°
2026-04-12 03:52 40.63930 -119.96532 33796 ft 542 kts 344°
2026-04-12 03:53 40.71147 -119.98577 33803 ft 542 kts 344°
2026-04-12 03:53 40.78505 -120.00671 33805 ft 541 kts 344°
2026-04-12 03:54 40.85848 -120.02766 33801 ft 541 kts 344°
2026-04-12 03:54 40.93190 -120.04869 33806 ft 541 kts 344°
2026-04-12 03:55 41.00528 -120.06976 33815 ft 541 kts 344°
2026-04-12 03:55 41.07873 -120.09089 33834 ft 541 kts 344°
2026-04-12 03:56 41.15209 -120.11206 33828 ft 541 kts 344°
2026-04-12 03:56 41.22545 -120.13327 33795 ft 541 kts 344°
2026-04-12 03:57 41.29872 -120.15448 33817 ft 539 kts 345°
2026-04-12 03:57 41.37179 -120.17563 33799 ft 538 kts 345°
2026-04-12 03:58 41.44472 -120.19683 33804 ft 537 kts 344°
2026-04-12 03:58 41.51764 -120.21809 33800 ft 537 kts 344°
2026-04-12 03:59 41.59043 -120.23935 33788 ft 536 kts 344°
2026-04-12 03:59 41.66309 -120.26064 33782 ft 535 kts 345°
2026-04-12 04:00 41.73577 -120.28196 33783 ft 535 kts 345°
2026-04-12 04:00 41.80839 -120.30329 33792 ft 535 kts 345°
2026-04-12 04:01 41.88102 -120.32471 33790 ft 535 kts 345°
2026-04-12 04:01 41.95349 -120.34612 33788 ft 535 kts 345°
2026-04-12 04:02 42.06229 -120.37836 33996 ft 535 kts 345°
2026-04-12 04:02 42.09855 -120.38912 34403 ft 534 kts 345°
2026-04-12 04:03 42.13482 -120.39991 34725 ft 535 kts 345°
2026-04-12 04:03 42.17099 -120.41068 35152 ft 533 kts 345°
2026-04-12 04:03 42.20714 -120.42145 35527 ft 532 kts 345°
2026-04-12 04:03 42.24324 -120.43223 35765 ft 535 kts 345°
2026-04-12 04:04 42.27953 -120.44307 35794 ft 531 kts 345°
2026-04-12 04:04 42.35113 -120.46449 35794 ft 529 kts 345°
2026-04-12 04:05 42.42295 -120.48605 35792 ft 530 kts 345°
2026-04-12 04:05 42.49472 -120.50762 35791 ft 529 kts 345°
2026-04-12 04:06 42.56615 -120.53098 35776 ft 531 kts 343°
2026-04-12 04:06 42.63786 -120.55549 35816 ft 534 kts 343°
2026-04-12 04:07 42.70965 -120.57975 35843 ft 536 kts 344°
2026-04-12 04:07 42.78154 -120.60395 35790 ft 529 kts 343°
2026-04-12 04:08 42.85278 -120.62799 35791 ft 529 kts 343°
2026-04-12 04:08 42.92403 -120.65211 35789 ft 528 kts 343°
2026-04-12 04:09 42.99507 -120.67621 35783 ft 528 kts 343°
2026-04-12 04:09 43.06629 -120.70044 35787 ft 529 kts 343°
2026-04-12 04:10 43.13771 -120.72479 35822 ft 531 kts 343°
2026-04-12 04:10 43.20941 -120.74928 35826 ft 532 kts 343°
2026-04-12 04:11 43.28110 -120.77383 35838 ft 532 kts 343°
2026-04-12 04:11 43.35275 -120.79843 35817 ft 531 kts 343°
2026-04-12 04:12 43.42421 -120.82302 35812 ft 529 kts 343°
2026-04-12 04:12 43.49540 -120.84758 35814 ft 528 kts 344°
2026-04-12 04:13 43.56634 -120.87212 35792 ft 526 kts 344°
2026-04-12 04:13 43.63706 -120.89664 35791 ft 525 kts 344°
2026-04-12 04:14 43.70765 -120.92117 35785 ft 524 kts 344°
2026-04-12 04:14 43.77812 -120.94572 35772 ft 523 kts 344°
2026-04-12 04:15 43.84853 -120.97030 35778 ft 523 kts 344°
2026-04-12 04:15 43.91894 -120.99496 35769 ft 522 kts 344°
2026-04-12 04:16 43.98925 -121.01963 35772 ft 522 kts 344°
2026-04-12 04:16 44.05955 -121.04436 35763 ft 522 kts 343°
2026-04-12 04:17 44.12991 -121.06917 35772 ft 523 kts 344°
2026-04-12 04:17 44.20031 -121.09405 35786 ft 523 kts 343°
2026-04-12 04:18 44.27066 -121.11902 35799 ft 523 kts 344°
2026-04-12 04:18 44.34095 -121.14398 35778 ft 522 kts 344°
2026-04-12 04:19 44.41122 -121.16900 35776 ft 522 kts 344°
2026-04-12 04:19 44.48135 -121.19404 35768 ft 521 kts 344°
2026-04-12 04:20 44.55137 -121.21910 35759 ft 521 kts 344°
2026-04-12 04:20 44.62146 -121.24426 35785 ft 520 kts 344°
2026-04-12 04:21 44.69123 -121.26935 35773 ft 518 kts 344°
2026-04-12 04:21 44.76082 -121.29444 35761 ft 517 kts 344°
2026-04-12 04:22 44.83027 -121.31956 35780 ft 515 kts 345°
2026-04-12 04:22 44.89935 -121.34459 35770 ft 513 kts 345°
2026-04-12 04:23 44.96828 -121.36964 35756 ft 511 kts 345°
2026-04-12 04:23 45.03696 -121.39465 35766 ft 510 kts 345°
2026-04-12 04:24 45.10542 -121.41964 35743 ft 509 kts 345°
2026-04-12 04:24 45.17371 -121.44463 35749 ft 508 kts 345°
2026-04-12 04:25 45.24204 -121.46971 35753 ft 508 kts 345°
2026-04-12 04:25 45.31036 -121.49484 35754 ft 508 kts 345°
2026-04-12 04:26 45.37853 -121.51998 35756 ft 508 kts 345°
2026-04-12 04:26 45.44689 -121.54526 35762 ft 508 kts 345°
2026-04-12 04:27 45.51520 -121.57057 35750 ft 508 kts 345°
2026-04-12 04:27 45.58345 -121.59593 35754 ft 508 kts 345°
2026-04-12 04:28 45.65184 -121.62141 35755 ft 509 kts 345°
2026-04-12 04:28 45.72017 -121.64691 35759 ft 508 kts 345°
2026-04-12 04:29 45.78852 -121.67250 35771 ft 509 kts 345°
2026-04-12 04:29 45.85691 -121.69818 35773 ft 509 kts 345°
2026-04-12 04:30 45.92523 -121.72388 35772 ft 509 kts 345°
2026-04-12 04:30 45.99353 -121.74965 35773 ft 509 kts 345°
2026-04-12 04:31 46.06180 -121.77547 35776 ft 508 kts 345°
2026-04-12 04:31 46.12996 -121.80131 35767 ft 508 kts 345°
2026-04-12 04:32 46.19805 -121.82719 35785 ft 506 kts 345°
2026-04-12 04:32 46.26598 -121.85309 35789 ft 506 kts 345°
2026-04-12 04:33 46.33389 -121.87904 35780 ft 505 kts 345°
2026-04-12 04:33 46.40163 -121.90498 35783 ft 505 kts 345°
2026-04-12 04:34 46.46939 -121.93101 35782 ft 504 kts 345°
2026-04-12 04:34 46.53710 -121.95708 35784 ft 504 kts 345°
2026-04-12 04:34 46.56999 -121.97386 35790 ft 504 kts 334°
2026-04-12 04:35 46.60030 -121.99922 35790 ft 502 kts 323°
2026-04-12 04:35 46.64918 -122.07040 35784 ft 499 kts 303°
2026-04-12 04:36 46.68393 -122.15728 35785 ft 498 kts 298°
2026-04-12 04:36 46.71829 -122.24460 35789 ft 498 kts 298°
2026-04-12 04:37 46.75249 -122.33212 35794 ft 498 kts 298°
2026-04-12 04:37 46.78656 -122.41986 35801 ft 498 kts 298°
2026-04-12 04:38 46.82055 -122.50771 35796 ft 498 kts 298°
2026-04-12 04:38 46.85444 -122.59556 35785 ft 497 kts 298°
2026-04-12 04:39 46.88826 -122.68351 35782 ft 497 kts 298°
2026-04-12 04:39 46.92197 -122.77147 35803 ft 497 kts 298°
2026-04-12 04:40 46.95672 -122.85862 35814 ft 497 kts 304°
2026-04-12 04:40 47.00072 -122.93605 35792 ft 498 kts 315°
2026-04-12 04:41 47.05269 -123.00306 35792 ft 499 kts 319°
2026-04-12 04:41 47.10512 -123.06948 35805 ft 499 kts 319°
2026-04-12 04:42 47.15752 -123.13592 35791 ft 498 kts 319°
2026-04-12 04:42 47.20987 -123.20232 35789 ft 498 kts 319°
2026-04-12 04:43 47.28827 -123.30207 35795 ft 497 kts 319°
2026-04-12 04:43 47.34033 -123.36853 35799 ft 496 kts 319°
2026-04-12 04:44 47.39227 -123.43501 35790 ft 495 kts 319°
2026-04-12 04:44 47.44403 -123.50145 35797 ft 494 kts 319°
2026-04-12 04:45 47.49569 -123.56793 35798 ft 493 kts 319°
2026-04-12 04:45 47.54725 -123.63447 35799 ft 492 kts 318°
2026-04-12 04:46 47.59873 -123.70108 35804 ft 492 kts 318°
2026-04-12 04:46 47.65027 -123.76762 35823 ft 491 kts 318°
2026-04-12 04:47 47.70140 -123.83435 35813 ft 491 kts 318°
2026-04-12 04:47 47.75255 -123.90120 35820 ft 490 kts 317°
2026-04-12 04:48 47.80350 -123.96787 35822 ft 489 kts 317°
2026-04-12 04:48 47.85434 -124.03455 35814 ft 488 kts 317°
2026-04-12 04:49 47.90508 -124.10129 35810 ft 487 kts 317°
2026-04-12 04:49 47.95566 -124.16800 35828 ft 486 kts 317°
2026-04-12 04:50 48.00612 -124.23473 35820 ft 485 kts 317°
2026-04-12 04:50 48.05650 -124.30153 35816 ft 485 kts 317°
2026-04-12 04:51 48.10680 -124.36842 35814 ft 485 kts 317°
2026-04-12 04:51 48.15700 -124.43535 35812 ft 484 kts 317°
2026-04-12 04:52 48.20720 -124.50247 35812 ft 485 kts 317°
2026-04-12 04:52 48.25736 -124.56970 35815 ft 485 kts 317°
2026-04-12 04:53 48.30812 -124.63605 35837 ft 485 kts 322°
2026-04-12 04:54 48.39025 -124.72467 35833 ft 485 kts 323°
2026-04-12 04:54 48.44478 -124.78393 35829 ft 484 kts 323°
2026-04-12 04:55 48.49922 -124.84327 35831 ft 484 kts 323°
2026-04-12 04:55 48.55364 -124.90272 35826 ft 483 kts 323°
2026-04-12 04:56 48.60787 -124.96211 35821 ft 483 kts 323°
2026-04-12 04:56 48.66204 -125.02161 35818 ft 482 kts 323°
2026-04-12 04:57 48.71618 -125.08123 35821 ft 482 kts 323°
2026-04-12 04:57 48.77023 -125.14092 35821 ft 482 kts 323°
2026-04-12 04:58 48.82425 -125.20074 35821 ft 482 kts 323°
2026-04-12 04:58 48.87813 -125.26056 35826 ft 482 kts 323°
2026-04-12 04:59 48.93212 -125.32068 35821 ft 482 kts 323°
2026-04-12 04:59 48.98610 -125.38095 35822 ft 482 kts 323°
2026-04-12 05:00 49.04005 -125.44135 35824 ft 483 kts 323°
2026-04-12 05:00 49.09399 -125.50193 35827 ft 483 kts 322°
2026-04-12 05:01 49.14798 -125.56268 35827 ft 483 kts 323°
2026-04-12 05:01 49.20192 -125.62349 35825 ft 483 kts 322°
2026-04-12 05:02 49.25579 -125.68443 35826 ft 483 kts 322°
2026-04-12 05:02 49.30973 -125.74563 35820 ft 483 kts 322°
2026-04-12 05:03 49.36359 -125.80691 35818 ft 483 kts 322°
2026-04-12 05:03 49.41741 -125.86830 35815 ft 483 kts 322°
2026-04-12 05:04 49.47118 -125.92982 35811 ft 483 kts 322°
2026-04-12 05:04 49.52499 -125.99157 35813 ft 484 kts 322°
2026-04-12 05:05 49.57877 -126.05344 35813 ft 484 kts 322°
2026-04-12 05:05 49.63253 -126.11547 35811 ft 484 kts 322°
2026-04-12 05:06 49.68633 -126.17773 35809 ft 484 kts 322°
2026-04-12 05:06 49.74008 -126.24009 35809 ft 484 kts 322°
2026-04-12 05:07 49.79374 -126.30253 35809 ft 484 kts 322°
2026-04-12 05:07 49.84749 -126.36526 35810 ft 485 kts 322°
2026-04-12 05:08 49.90120 -126.42811 35817 ft 485 kts 322°
2026-04-12 05:08 49.95493 -126.49117 35817 ft 485 kts 322°
2026-04-12 05:09 50.00858 -126.55432 35819 ft 485 kts 322°
2026-04-12 05:09 50.06224 -126.61766 35820 ft 485 kts 322°
2026-04-12 05:10 50.11584 -126.68111 35821 ft 485 kts 322°
2026-04-12 05:10 50.16913 -126.74438 35823 ft 485 kts 322°
2026-04-12 05:11 50.22268 -126.80814 35829 ft 485 kts 322°
2026-04-12 05:11 50.27615 -126.87199 35821 ft 485 kts 322°
2026-04-12 05:12 50.32952 -126.93590 35823 ft 485 kts 322°
2026-04-12 05:12 50.38295 -127.00007 35822 ft 485 kts 322°
2026-04-12 05:13 50.43634 -127.06438 35826 ft 485 kts 322°
2026-04-12 05:13 50.48966 -127.12880 35828 ft 485 kts 322°
2026-04-12 05:14 50.54303 -127.19347 35832 ft 485 kts 322°
2026-04-12 05:14 50.59631 -127.25821 35832 ft 485 kts 322°
2026-04-12 05:15 50.64958 -127.32311 35836 ft 485 kts 322°
2026-04-12 05:15 50.70485 -127.38343 35831 ft 485 kts 331°
2026-04-12 05:16 50.76406 -127.43384 35830 ft 485 kts 331°
2026-04-12 05:16 50.82294 -127.48476 35830 ft 485 kts 331°
2026-04-12 05:17 50.88191 -127.53578 35849 ft 483 kts 331°
2026-04-12 05:17 50.93970 -127.58585 35832 ft 483 kts 331°
2026-04-12 05:18 50.99845 -127.63688 35839 ft 482 kts 331°
2026-04-12 05:18 51.05710 -127.68799 35832 ft 482 kts 331°
2026-04-12 05:19 51.11577 -127.73927 35834 ft 482 kts 331°
2026-04-12 05:19 51.17438 -127.79065 35824 ft 482 kts 331°
2026-04-12 05:20 51.23306 -127.84223 35829 ft 483 kts 331°
2026-04-12 05:20 51.29185 -127.89405 35837 ft 484 kts 331°
2026-04-12 05:21 51.35027 -127.94569 35842 ft 485 kts 331°
2026-04-12 05:21 51.40913 -127.99789 35847 ft 485 kts 331°
2026-04-12 05:22 51.46802 -128.05027 35853 ft 485 kts 331°
2026-04-12 05:22 51.52676 -128.10267 35847 ft 485 kts 330°
2026-04-12 05:23 51.58556 -128.15528 35843 ft 484 kts 330°
2026-04-12 05:23 51.64424 -128.20794 35840 ft 484 kts 330°
2026-04-12 05:24 51.70285 -128.26069 35833 ft 483 kts 330°
2026-04-12 05:24 51.76139 -128.31354 35828 ft 482 kts 330°
2026-04-12 05:25 51.81978 -128.36643 35824 ft 482 kts 330°
2026-04-12 05:25 51.87807 -128.41937 35816 ft 482 kts 330°
2026-04-12 05:26 51.93638 -128.47248 35814 ft 481 kts 331°
2026-04-12 05:26 51.99456 -128.52564 35819 ft 481 kts 331°
2026-04-12 05:27 52.05270 -128.57892 35818 ft 481 kts 330°
2026-04-12 05:27 52.11087 -128.63240 35814 ft 481 kts 330°
2026-04-12 05:28 52.16905 -128.68604 35818 ft 481 kts 330°
2026-04-12 05:28 52.22722 -128.73982 35815 ft 482 kts 330°
2026-04-12 05:29 52.28536 -128.79371 35816 ft 482 kts 330°
2026-04-12 05:29 52.34331 -128.84759 35817 ft 482 kts 330°
2026-04-12 05:30 52.40140 -128.90176 35820 ft 481 kts 330°
2026-04-12 05:30 52.45941 -128.95601 35818 ft 481 kts 330°
2026-04-12 05:31 52.51737 -129.01037 35813 ft 481 kts 330°
2026-04-12 05:31 52.57531 -129.06489 35811 ft 481 kts 330°
2026-04-12 05:32 52.63314 -129.11948 35815 ft 480 kts 330°
2026-04-12 05:32 52.69051 -129.17380 35806 ft 480 kts 330°
2026-04-12 05:33 52.74825 -129.22862 35801 ft 480 kts 330°
2026-04-12 05:33 52.80591 -129.28355 35801 ft 480 kts 330°
2026-04-12 05:34 52.86357 -129.33865 35807 ft 479 kts 330°
2026-04-12 05:34 52.92114 -129.39383 35808 ft 479 kts 330°
2026-04-12 05:35 52.97869 -129.44916 35800 ft 479 kts 330°
2026-04-12 05:35 53.03611 -129.50453 35795 ft 478 kts 330°
2026-04-12 05:36 53.09314 -129.55929 35802 ft 478 kts 330°
2026-04-12 05:36 53.15060 -129.61432 35793 ft 477 kts 330°
2026-04-12 05:37 53.20800 -129.66953 35794 ft 477 kts 330°
2026-04-12 05:37 53.26522 -129.72479 35787 ft 476 kts 330°
2026-04-12 05:38 53.32247 -129.78025 35800 ft 476 kts 330°
2026-04-12 05:38 53.37954 -129.83572 35796 ft 475 kts 330°
2026-04-12 05:39 53.43655 -129.89130 35791 ft 475 kts 330°
2026-04-12 05:39 53.49345 -129.94695 35792 ft 474 kts 330°
2026-04-12 05:40 53.55026 -130.00269 35795 ft 474 kts 330°
2026-04-12 05:40 53.60707 -130.05860 35796 ft 474 kts 330°
2026-04-12 05:41 53.66345 -130.11426 35793 ft 473 kts 329°
2026-04-12 05:41 53.72016 -130.17042 35793 ft 473 kts 329°
2026-04-12 05:42 53.77682 -130.22671 35806 ft 473 kts 329°
2026-04-12 05:42 53.83343 -130.28313 35806 ft 473 kts 329°
2026-04-12 05:43 53.91829 -130.36805 35806 ft 473 kts 329°
2026-04-12 05:43 53.97485 -130.42486 35798 ft 473 kts 329°
2026-04-12 05:44 54.03134 -130.48179 35805 ft 473 kts 329°
2026-04-12 05:44 54.08777 -130.53885 35803 ft 472 kts 329°
2026-04-12 05:45 54.14411 -130.59600 35795 ft 472 kts 329°
2026-04-12 05:45 54.20038 -130.65325 35793 ft 472 kts 329°
2026-04-12 05:46 54.25664 -130.71069 35795 ft 472 kts 328°
2026-04-12 05:46 54.31282 -130.76822 35792 ft 471 kts 328°
2026-04-12 05:47 54.36873 -130.82566 35794 ft 471 kts 328°
2026-04-12 05:47 54.42486 -130.88352 35797 ft 471 kts 328°
2026-04-12 05:48 54.48092 -130.94148 35798 ft 471 kts 328°
2026-04-12 05:48 54.53700 -130.99966 35800 ft 472 kts 328°
2026-04-12 05:49 54.59305 -131.05797 35803 ft 472 kts 328°
2026-04-12 05:49 54.64695 -131.12176 35804 ft 471 kts 321°
2026-04-12 05:50 54.69884 -131.19079 35805 ft 471 kts 326°
2026-04-12 05:50 54.75466 -131.24981 35808 ft 471 kts 328°
2026-04-12 05:51 54.81031 -131.30925 35811 ft 471 kts 328°
2026-04-12 05:51 54.86591 -131.36884 35810 ft 471 kts 328°
2026-04-12 05:52 54.92153 -131.42850 35816 ft 471 kts 328°
2026-04-12 05:52 54.97710 -131.48829 35817 ft 470 kts 328°
2026-04-12 05:53 55.03207 -131.54940 35817 ft 470 kts 323°
2026-04-12 05:53 55.08120 -131.62387 35822 ft 470 kts 314°
2026-04-12 05:54 55.12405 -131.70960 35825 ft 470 kts 311°
2026-04-12 05:54 55.16662 -131.79590 35833 ft 470 kts 311°
2026-04-12 05:55 55.20898 -131.88267 35834 ft 470 kts 310°
2026-04-12 05:55 55.25119 -131.96980 35835 ft 470 kts 310°
2026-04-12 05:56 55.29333 -132.05719 35834 ft 470 kts 310°
2026-04-12 05:56 55.33511 -132.14413 35845 ft 470 kts 310°
2026-04-12 05:57 55.37708 -132.23176 35837 ft 469 kts 310°
2026-04-12 05:57 55.41897 -132.31957 35833 ft 469 kts 310°
2026-04-12 05:58 55.46071 -132.40737 35832 ft 468 kts 310°
2026-04-12 05:58 55.50239 -132.49534 35828 ft 468 kts 310°
2026-04-12 05:59 55.54393 -132.58336 35842 ft 467 kts 310°
2026-04-12 05:59 55.58536 -132.67145 35849 ft 467 kts 310°
2026-04-12 06:00 55.62671 -132.75969 35852 ft 466 kts 310°
2026-04-12 06:00 55.66795 -132.84803 35854 ft 466 kts 310°
2026-04-12 06:01 55.70884 -132.93591 35854 ft 466 kts 310°
2026-04-12 06:01 55.74990 -133.02464 35852 ft 466 kts 310°
2026-04-12 06:02 55.79092 -133.11344 35849 ft 466 kts 309°
2026-04-12 06:02 55.83193 -133.20258 35847 ft 466 kts 309°
2026-04-12 06:03 55.87284 -133.29186 35853 ft 466 kts 309°
2026-04-12 06:03 55.91368 -133.38132 35857 ft 467 kts 309°
2026-04-12 06:04 55.95452 -133.47110 35866 ft 467 kts 309°
2026-04-12 06:04 55.99524 -133.56095 35866 ft 467 kts 309°
2026-04-12 06:05 56.03596 -133.65114 35875 ft 467 kts 309°
2026-04-12 06:05 56.07661 -133.74151 35876 ft 467 kts 309°
2026-04-12 06:06 56.11710 -133.83186 35885 ft 467 kts 309°
2026-04-12 06:06 56.15759 -133.92254 35884 ft 467 kts 309°
2026-04-12 06:07 56.19793 -134.01324 35880 ft 467 kts 309°
2026-04-12 06:08 56.27918 -134.19696 35888 ft 466 kts 309°
2026-04-12 06:08 56.31935 -134.28828 35886 ft 466 kts 309°
2026-04-12 06:09 56.35928 -134.37941 35883 ft 466 kts 309°
2026-04-12 06:09 56.39929 -134.47106 35884 ft 465 kts 309°
2026-04-12 06:10 56.43935 -134.56320 36286 ft 469 kts 308°
2026-04-12 06:10 56.45945 -134.60954 36619 ft 470 kts 308°
2026-04-12 06:10 56.47953 -134.65595 36945 ft 470 kts 308°
2026-04-12 06:11 56.49968 -134.70260 37269 ft 471 kts 308°
2026-04-12 06:11 56.51983 -134.74935 37593 ft 472 kts 308°
2026-04-12 06:11 56.53998 -134.79617 37857 ft 474 kts 308°
2026-04-12 06:11 56.56031 -134.84345 37885 ft 475 kts 308°
2026-04-12 06:12 56.60034 -134.93690 37898 ft 469 kts 308°
2026-04-12 06:12 56.64026 -135.03059 37895 ft 471 kts 308°
2026-04-12 06:13 56.68006 -135.12431 37900 ft 471 kts 308°
2026-04-12 06:13 56.71995 -135.21858 37897 ft 471 kts 308°
2026-04-12 06:14 56.75973 -135.31296 37903 ft 471 kts 308°
2026-04-12 06:14 56.79918 -135.40690 37908 ft 470 kts 307°
2026-04-12 06:15 56.83878 -135.50158 37904 ft 470 kts 307°
2026-04-12 06:15 56.87427 -135.60102 37901 ft 470 kts 299°
2026-04-12 06:16 56.90519 -135.70623 37897 ft 470 kts 299°
2026-04-12 06:16 56.93644 -135.81092 37910 ft 469 kts 299°
2026-04-12 06:17 56.96757 -135.91563 37914 ft 468 kts 298°
2026-04-12 06:17 56.99854 -136.02041 37910 ft 468 kts 298°
2026-04-12 06:18 57.02932 -136.12508 37912 ft 467 kts 298°
2026-04-12 06:18 57.05997 -136.23000 37908 ft 467 kts 298°
2026-04-12 06:19 57.09045 -136.33492 37905 ft 466 kts 298°
2026-04-12 06:19 57.12054 -136.43898 37910 ft 466 kts 298°
2026-04-12 06:20 57.15081 -136.54415 37912 ft 466 kts 298°
2026-04-12 06:20 57.18099 -136.64947 37913 ft 466 kts 297°
2026-04-12 06:21 57.21108 -136.75496 37915 ft 466 kts 297°
2026-04-12 06:21 57.24108 -136.86062 37929 ft 466 kts 297°
2026-04-12 06:22 57.27104 -136.96662 37923 ft 466 kts 297°
2026-04-12 06:22 57.30088 -137.07269 37927 ft 466 kts 297°
2026-04-12 06:23 57.33067 -137.17907 37932 ft 467 kts 297°
2026-04-12 06:23 57.36038 -137.28566 37932 ft 467 kts 297°
2026-04-12 06:24 57.38982 -137.39177 37941 ft 467 kts 296°
2026-04-12 06:24 57.41936 -137.49875 37933 ft 467 kts 296°
2026-04-12 06:25 57.44880 -137.60583 37939 ft 467 kts 296°
2026-04-12 06:25 57.47816 -137.71317 37941 ft 467 kts 296°
2026-04-12 06:26 57.50742 -137.82064 37937 ft 467 kts 296°
2026-04-12 06:26 57.53661 -137.92833 37942 ft 467 kts 295°
2026-04-12 06:27 57.56570 -138.03620 37940 ft 467 kts 295°
2026-04-12 06:27 57.59472 -138.14430 37941 ft 467 kts 295°
2026-04-12 06:28 57.62363 -138.25252 37942 ft 467 kts 295°
2026-04-12 06:28 57.65244 -138.36088 37944 ft 467 kts 295°
2026-04-12 06:29 57.68120 -138.46958 37934 ft 468 kts 295°
2026-04-12 06:29 57.70987 -138.57845 37941 ft 468 kts 295°
2026-04-12 06:30 57.73846 -138.68756 37947 ft 469 kts 294°
2026-04-12 06:30 57.76701 -138.79704 37950 ft 469 kts 294°
2026-04-12 06:31 57.79550 -138.90683 37951 ft 469 kts 294°
2026-04-12 06:31 57.82387 -139.01669 37944 ft 470 kts 294°
2026-04-12 06:32 57.85210 -139.12653 37949 ft 470 kts 294°
2026-04-12 06:32 57.88036 -139.23709 37950 ft 470 kts 294°
2026-04-12 06:33 57.90845 -139.34750 37950 ft 471 kts 294°
2026-04-12 06:33 57.93655 -139.45850 37954 ft 471 kts 294°
2026-04-12 06:34 57.96453 -139.56955 37949 ft 471 kts 293°
2026-04-12 06:34 57.99242 -139.68085 37952 ft 471 kts 293°
2026-04-12 06:35 58.03404 -139.84794 37947 ft 470 kts 293°
2026-04-12 06:36 58.06159 -139.95930 37951 ft 470 kts 293°
2026-04-12 06:36 58.08912 -140.07107 37948 ft 471 kts 293°
2026-04-12 06:37 58.11657 -140.18315 37948 ft 471 kts 292°
2026-04-12 06:37 58.14395 -140.29549 37944 ft 471 kts 292°
2026-04-12 06:38 58.17124 -140.40806 37954 ft 471 kts 292°
2026-04-12 06:38 58.19843 -140.52077 37948 ft 472 kts 292°
2026-04-12 06:39 58.22556 -140.63383 37942 ft 472 kts 292°
2026-04-12 06:39 58.25261 -140.74715 37953 ft 472 kts 292°
2026-04-12 06:40 58.27956 -140.86066 37945 ft 473 kts 292°
2026-04-12 06:40 58.30644 -140.97445 37945 ft 473 kts 292°
2026-04-12 06:41 58.33305 -141.08767 37952 ft 473 kts 292°
2026-04-12 06:41 58.35972 -141.20179 37935 ft 473 kts 291°
2026-04-12 06:42 58.38629 -141.31606 37939 ft 473 kts 291°
2026-04-12 06:42 58.41273 -141.43041 37945 ft 472 kts 291°
2026-04-12 06:43 58.43909 -141.54501 37957 ft 472 kts 291°
2026-04-12 06:43 58.46518 -141.65908 37959 ft 472 kts 291°
2026-04-12 06:44 58.49132 -141.77391 37939 ft 473 kts 291°
2026-04-12 06:44 58.51739 -141.88912 37936 ft 473 kts 291°
2026-04-12 06:45 58.54334 -142.00443 37937 ft 473 kts 291°
2026-04-12 06:45 58.56919 -142.11990 37936 ft 473 kts 291°
2026-04-12 06:46 58.59497 -142.23571 37940 ft 473 kts 291°
2026-04-12 06:46 58.62064 -142.35163 37940 ft 474 kts 290°
2026-04-12 06:47 58.64625 -142.46793 37938 ft 474 kts 290°
2026-04-12 06:47 58.67160 -142.58372 37934 ft 473 kts 290°
2026-04-12 06:48 58.69696 -142.70017 37931 ft 473 kts 290°
2026-04-12 06:48 58.72223 -142.81688 37931 ft 473 kts 290°
2026-04-12 06:49 58.74734 -142.93349 37930 ft 474 kts 290°
2026-04-12 06:49 58.77241 -143.05064 37927 ft 474 kts 290°
2026-04-12 06:50 58.79740 -143.16800 37925 ft 474 kts 290°
2026-04-12 06:50 58.82227 -143.28553 37923 ft 474 kts 290°
2026-04-12 06:51 58.84703 -143.40318 37925 ft 474 kts 289°
2026-04-12 06:51 58.87173 -143.52120 37923 ft 475 kts 289°
2026-04-12 06:52 58.89632 -143.63940 37924 ft 475 kts 289°
2026-04-12 06:52 58.92066 -143.75707 37915 ft 475 kts 289°
2026-04-12 06:53 58.94522 -143.87652 37920 ft 475 kts 289°
2026-04-12 06:53 58.96949 -143.99526 37911 ft 475 kts 289°
2026-04-12 06:54 58.99366 -144.11419 37915 ft 475 kts 289°
2026-04-12 06:54 59.01768 -144.23305 37917 ft 474 kts 289°
2026-04-12 06:55 59.04156 -144.35200 37916 ft 474 kts 289°
2026-04-12 06:55 59.06532 -144.47103 37893 ft 473 kts 289°
2026-04-12 06:56 59.08898 -144.59024 37887 ft 473 kts 289°
2026-04-12 06:56 59.11253 -144.70968 37887 ft 474 kts 288°
2026-04-12 06:57 59.13600 -144.82939 37899 ft 474 kts 288°
2026-04-12 06:57 59.15936 -144.94925 37893 ft 475 kts 288°
2026-04-12 06:58 59.18264 -145.06945 37898 ft 475 kts 288°
2026-04-12 06:58 59.20574 -145.18945 37893 ft 475 kts 288°
2026-04-12 06:59 59.22881 -145.31004 37899 ft 476 kts 288°
2026-04-12 06:59 59.25181 -145.43100 37893 ft 476 kts 288°
2026-04-12 07:00 59.28602 -145.61234 37897 ft 476 kts 288°
2026-04-12 07:00 59.30866 -145.73328 37895 ft 475 kts 288°
2026-04-12 07:01 59.33125 -145.85470 37889 ft 476 kts 288°
2026-04-12 07:01 59.35379 -145.97622 37888 ft 476 kts 287°
2026-04-12 07:02 59.37609 -146.09699 37888 ft 476 kts 287°
2026-04-12 07:02 59.39845 -146.21883 37886 ft 476 kts 287°
2026-04-12 07:03 59.42068 -146.34071 37875 ft 476 kts 287°
2026-04-12 07:03 59.44839 -146.45877 37867 ft 480 kts 297°
2026-04-12 07:04 59.48153 -146.57232 37873 ft 480 kts 296°
2026-04-12 07:04 59.51353 -146.68711 37877 ft 479 kts 295°
2026-04-12 07:05 59.54458 -146.80195 37874 ft 480 kts 295°
2026-04-12 07:05 59.57569 -146.91814 37876 ft 480 kts 295°
2026-04-12 07:06 59.60651 -147.03381 37867 ft 481 kts 295°
2026-04-12 07:06 59.63747 -147.15055 37868 ft 481 kts 295°
2026-04-12 07:07 59.66830 -147.26742 37863 ft 481 kts 295°
2026-04-12 07:07 59.69892 -147.38410 37865 ft 481 kts 295°
2026-04-12 07:08 59.72960 -147.50159 37859 ft 481 kts 295°
2026-04-12 07:08 59.76017 -147.61930 37857 ft 481 kts 294°
2026-04-12 07:09 59.79063 -147.73719 37856 ft 481 kts 294°
2026-04-12 07:09 59.82058 -147.85372 37859 ft 481 kts 294°
2026-04-12 07:10 59.85084 -147.97209 37864 ft 481 kts 294°
2026-04-12 07:10 59.88100 -148.09073 37887 ft 481 kts 294°
2026-04-12 07:11 59.91084 -148.20872 37837 ft 482 kts 294°
2026-04-12 07:11 59.94082 -148.32789 37839 ft 482 kts 294°
2026-04-12 07:12 59.97069 -148.44725 37860 ft 482 kts 294°
2026-04-12 07:12 60.00044 -148.56681 37872 ft 482 kts 294°
2026-04-12 07:13 60.03012 -148.68669 37869 ft 482 kts 294°
2026-04-12 07:13 60.05970 -148.80687 37861 ft 483 kts 294°
2026-04-12 07:14 60.08918 -148.92732 37863 ft 483 kts 293°
2026-04-12 07:14 60.11860 -149.04812 37857 ft 483 kts 293°
2026-04-12 07:15 60.14784 -149.16889 37851 ft 483 kts 293°
2026-04-12 07:15 60.17703 -149.29011 37856 ft 483 kts 293°
2026-04-12 07:16 60.20614 -149.41167 37851 ft 484 kts 293°
2026-04-12 07:16 60.23511 -149.53336 37852 ft 483 kts 293°
2026-04-12 07:17 60.26400 -149.65535 37856 ft 484 kts 293°
2026-04-12 07:17 60.29275 -149.77749 37864 ft 483 kts 292°
2026-04-12 07:18 60.32138 -149.89983 37863 ft 483 kts 292°
2026-04-12 07:18 60.34977 -150.02176 37877 ft 483 kts 292°
2026-04-12 07:19 60.37818 -150.14449 37879 ft 483 kts 292°
2026-04-12 07:19 60.40643 -150.26725 37888 ft 483 kts 292°
2026-04-12 07:20 60.43460 -150.39039 37897 ft 483 kts 292°
2026-04-12 07:20 60.46269 -150.51385 37911 ft 484 kts 292°
2026-04-12 07:21 60.49072 -150.63775 37905 ft 484 kts 292°
2026-04-12 07:21 60.51861 -150.76181 37915 ft 485 kts 292°
2026-04-12 07:22 60.54643 -150.88625 37924 ft 484 kts 292°
2026-04-12 07:22 60.56948 -150.98987 37915 ft 484 kts 292°
2026-04-12 07:23 60.57259 -151.00388 37918 ft 484 kts 292°
2026-04-12 07:23 60.57509 -151.01517 37912 ft 484 kts 292°
2026-04-12 07:24 60.60230 -151.14002 37905 ft 482 kts 289°
2026-04-12 07:24 60.62357 -151.26709 37896 ft 480 kts 283°
2026-04-12 07:25 60.63994 -151.39844 37891 ft 479 kts 283°
2026-04-12 07:25 60.65673 -151.52956 37891 ft 479 kts 282°
2026-04-12 07:26 60.67318 -151.66104 37897 ft 479 kts 282°
2026-04-12 07:26 60.68930 -151.79210 37884 ft 479 kts 282°
2026-04-12 07:27 60.70533 -151.92383 37883 ft 479 kts 282°
2026-04-12 07:27 60.72126 -152.05579 37878 ft 479 kts 282°
2026-04-12 07:28 60.73695 -152.18703 37876 ft 479 kts 282°
2026-04-12 07:28 60.75263 -152.31937 37869 ft 480 kts 282°
2026-04-12 07:29 60.76817 -152.45179 37867 ft 480 kts 282°
2026-04-12 07:29 60.78359 -152.58442 37865 ft 480 kts 281°
2026-04-12 07:30 60.79889 -152.71723 37868 ft 480 kts 281°
2026-04-12 07:30 60.81404 -152.85007 37875 ft 480 kts 281°
2026-04-12 07:31 60.82907 -152.98310 37868 ft 480 kts 281°
2026-04-12 07:31 60.84397 -153.11623 37880 ft 480 kts 281°
2026-04-12 07:32 60.85875 -153.24963 37880 ft 480 kts 281°
2026-04-12 07:32 60.87338 -153.38298 37892 ft 480 kts 281°
2026-04-12 07:33 60.88786 -153.51637 37890 ft 480 kts 281°
2026-04-12 07:33 60.90223 -153.64991 37907 ft 480 kts 281°
2026-04-12 07:34 60.91644 -153.78351 37907 ft 480 kts 281°
2026-04-12 07:34 60.93053 -153.91721 37917 ft 479 kts 281°
2026-04-12 07:35 60.94434 -154.04967 37919 ft 479 kts 280°
2026-04-12 07:35 60.95816 -154.18349 37923 ft 479 kts 280°
2026-04-12 07:36 60.97184 -154.31750 37941 ft 479 kts 280°
2026-04-12 07:36 60.98538 -154.45144 37938 ft 479 kts 280°
2026-04-12 07:37 60.99878 -154.58548 37930 ft 478 kts 280°
2026-04-12 07:37 61.01180 -154.71937 37930 ft 477 kts 278°
2026-04-12 07:38 61.02460 -154.85330 37924 ft 477 kts 280°
2026-04-12 07:38 61.03788 -154.98657 37909 ft 477 kts 280°
2026-04-12 07:39 61.05081 -155.12059 37892 ft 477 kts 279°
2026-04-12 07:39 61.06351 -155.25478 37881 ft 478 kts 279°
2026-04-12 07:40 61.07607 -155.38918 37868 ft 478 kts 279°
2026-04-12 07:40 61.08852 -155.52381 37869 ft 478 kts 279°
2026-04-12 07:41 61.10201 -155.65808 37940 ft 479 kts 284°
2026-04-12 07:41 61.12132 -155.78968 37932 ft 480 kts 285°
2026-04-12 07:42 61.14031 -155.92073 37938 ft 480 kts 285°
2026-04-12 07:43 61.17806 -156.18429 37937 ft 479 kts 285°
2026-04-12 07:43 61.19677 -156.31655 37935 ft 479 kts 285°
2026-04-12 07:44 61.21535 -156.44897 37933 ft 479 kts 284°
2026-04-12 07:44 61.23382 -156.58168 37933 ft 479 kts 284°
2026-04-12 07:45 61.25213 -156.71432 37926 ft 479 kts 284°
2026-04-12 07:45 61.27013 -156.84581 37936 ft 479 kts 284°
2026-04-12 07:46 61.28820 -156.97887 37935 ft 479 kts 284°
2026-04-12 07:46 61.30614 -157.11214 37936 ft 479 kts 284°
2026-04-12 07:47 61.32395 -157.24549 37932 ft 479 kts 284°
2026-04-12 07:47 61.34163 -157.37907 37937 ft 479 kts 284°
2026-04-12 07:48 61.35919 -157.51283 37934 ft 480 kts 284°
2026-04-12 07:48 61.37662 -157.64683 37939 ft 480 kts 284°
2026-04-12 07:49 61.39393 -157.78093 37942 ft 480 kts 283°
2026-04-12 07:49 61.41109 -157.91521 37945 ft 480 kts 283°
2026-04-12 07:50 61.42814 -158.04967 37947 ft 480 kts 283°
2026-04-12 07:50 61.44504 -158.18423 37947 ft 480 kts 283°
2026-04-12 07:51 61.46181 -158.31894 37948 ft 480 kts 283°
2026-04-12 07:51 61.47845 -158.45382 37945 ft 480 kts 283°
2026-04-12 07:52 61.49495 -158.58878 37945 ft 480 kts 283°
2026-04-12 07:52 61.51121 -158.72295 37947 ft 480 kts 283°
2026-04-12 07:53 61.52744 -158.85818 37947 ft 480 kts 283°
2026-04-12 07:53 61.54354 -158.99358 37946 ft 480 kts 283°
2026-04-12 07:54 61.55951 -159.12909 37931 ft 480 kts 283°
2026-04-12 07:54 61.57531 -159.26450 37942 ft 480 kts 282°
2026-04-12 07:55 61.59103 -159.40054 37951 ft 480 kts 282°
2026-04-12 07:55 61.60610 -159.53672 37948 ft 480 kts 279°
2026-04-12 07:56 61.61448 -159.67566 37933 ft 480 kts 273°
2026-04-12 07:56 61.61510 -159.81516 37960 ft 478 kts 268°
2026-04-12 07:57 61.61339 -159.95463 37948 ft 478 kts 268°
2026-04-12 07:57 61.61191 -160.09386 37940 ft 477 kts 268°
2026-04-12 07:58 61.61033 -160.23286 37942 ft 477 kts 268°
2026-04-12 07:58 61.60860 -160.37173 37956 ft 476 kts 268°
2026-04-12 07:59 61.60672 -160.51056 37954 ft 476 kts 268°
2026-04-12 07:59 61.60470 -160.64928 37946 ft 476 kts 268°
2026-04-12 08:00 61.60247 -160.78808 37940 ft 476 kts 268°
2026-04-12 08:00 61.60004 -160.92676 37935 ft 476 kts 268°
2026-04-12 08:01 61.59745 -161.06556 37965 ft 477 kts 267°
2026-04-12 08:01 61.59473 -161.20440 37973 ft 477 kts 267°
2026-04-12 08:02 61.59186 -161.34340 37940 ft 477 kts 267°
2026-04-12 08:02 61.58886 -161.48205 37948 ft 478 kts 267°
2026-04-12 08:03 61.58570 -161.62116 37920 ft 478 kts 267°
2026-04-12 08:03 61.58241 -161.76028 37945 ft 478 kts 267°
2026-04-12 08:04 61.57898 -161.89926 37945 ft 478 kts 267°
2026-04-12 08:04 61.57540 -162.03819 37912 ft 478 kts 267°
2026-04-12 08:05 61.57169 -162.17688 37903 ft 477 kts 266°
2026-04-12 08:05 61.56783 -162.31571 37908 ft 477 kts 266°
2026-04-12 08:06 61.56385 -162.45412 37907 ft 477 kts 266°
2026-04-12 08:06 61.55977 -162.59067 37911 ft 477 kts 266°
2026-04-12 08:07 61.55551 -162.72908 37911 ft 477 kts 266°
2026-04-12 08:07 61.55110 -162.86748 37927 ft 477 kts 266°
2026-04-12 08:08 61.54656 -163.00591 37915 ft 477 kts 266°
2026-04-12 08:08 61.54186 -163.14444 37919 ft 477 kts 266°
2026-04-12 08:09 61.53702 -163.28295 37928 ft 477 kts 266°
2026-04-12 08:09 61.53205 -163.42134 37920 ft 477 kts 266°
2026-04-12 08:10 61.52694 -163.55971 37937 ft 476 kts 266°
2026-04-12 08:10 61.52169 -163.69791 37932 ft 476 kts 266°
2026-04-12 08:11 61.51631 -163.83578 37927 ft 476 kts 265°
2026-04-12 08:11 61.51080 -163.97349 37920 ft 475 kts 265°
2026-04-12 08:12 61.50516 -164.11095 37906 ft 475 kts 265°
2026-04-12 08:12 61.49938 -164.24833 37918 ft 474 kts 265°
2026-04-12 08:13 61.49347 -164.38549 37919 ft 474 kts 265°
2026-04-12 08:13 61.48741 -164.52274 37924 ft 474 kts 265°
2026-04-12 08:14 61.48126 -164.65912 37918 ft 474 kts 265°
2026-04-12 08:14 61.47493 -164.79616 37918 ft 474 kts 265°
2026-04-12 08:15 61.46847 -164.93327 37904 ft 475 kts 265°
2026-04-12 08:15 61.46186 -165.07034 37901 ft 475 kts 265°
2026-04-12 08:16 61.45511 -165.20742 37896 ft 475 kts 264°
2026-04-12 08:16 61.44822 -165.34459 37893 ft 475 kts 264°
2026-04-12 08:17 61.44120 -165.48157 37908 ft 475 kts 264°
2026-04-12 08:17 61.43403 -165.61862 37908 ft 475 kts 264°
2026-04-12 08:18 61.42679 -165.75441 37907 ft 475 kts 264°
2026-04-12 08:18 61.41935 -165.89125 37914 ft 475 kts 264°
2026-04-12 08:19 61.41178 -166.02807 37891 ft 475 kts 264°
2026-04-12 08:19 61.40407 -166.16471 37886 ft 475 kts 264°
2026-04-12 08:20 61.39622 -166.30140 37873 ft 475 kts 264°
2026-04-12 08:20 61.38826 -166.43755 37869 ft 475 kts 264°
2026-04-12 08:21 61.38014 -166.57398 37863 ft 475 kts 264°
2026-04-12 08:21 61.37190 -166.71013 37883 ft 475 kts 264°
2026-04-12 08:22 61.36351 -166.84640 37883 ft 474 kts 263°
2026-04-12 08:22 61.35500 -166.98239 37882 ft 474 kts 263°
2026-04-12 08:23 61.34634 -167.11836 37879 ft 474 kts 263°
2026-04-12 08:23 61.33757 -167.25412 37862 ft 474 kts 263°
2026-04-12 08:24 61.32867 -167.38953 37884 ft 473 kts 263°
2026-04-12 08:24 61.31964 -167.52477 37883 ft 472 kts 263°
2026-04-12 08:25 61.31049 -167.65983 37875 ft 472 kts 263°
2026-04-12 08:25 61.30122 -167.79463 37873 ft 472 kts 263°
2026-04-12 08:26 61.29182 -167.92929 37869 ft 471 kts 263°
2026-04-12 08:26 61.28228 -168.06385 37875 ft 472 kts 263°
2026-04-12 08:27 61.27260 -168.19850 37876 ft 471 kts 263°
2026-04-12 08:27 61.26281 -168.33280 37879 ft 471 kts 263°
2026-04-12 08:28 61.25287 -168.46716 37875 ft 471 kts 262°
2026-04-12 08:28 61.24281 -168.60137 37875 ft 471 kts 262°
2026-04-12 08:29 61.23261 -168.73552 37877 ft 471 kts 262°
2026-04-12 08:29 61.22227 -168.86962 37886 ft 471 kts 262°
2026-04-12 08:30 61.21181 -169.00360 37887 ft 471 kts 262°
2026-04-12 08:30 61.20124 -169.13712 37888 ft 471 kts 262°
2026-04-12 08:31 61.19055 -169.27040 37891 ft 470 kts 262°
2026-04-12 08:31 61.17974 -169.40355 37888 ft 469 kts 262°
2026-04-12 08:32 61.16879 -169.53664 37877 ft 469 kts 262°
2026-04-12 08:32 61.15775 -169.66923 37893 ft 468 kts 262°
2026-04-12 08:33 61.14658 -169.80161 37888 ft 467 kts 262°
2026-04-12 08:33 61.13534 -169.93331 37885 ft 467 kts 262°
2026-04-12 08:34 61.12394 -170.06524 37884 ft 467 kts 262°
2026-04-12 08:34 61.11241 -170.19709 37883 ft 467 kts 261°
2026-04-12 08:35 61.10077 -170.32876 37892 ft 467 kts 261°
2026-04-12 08:35 61.08897 -170.46051 37893 ft 467 kts 261°
2026-04-12 08:36 61.07708 -170.59190 37895 ft 467 kts 261°
2026-04-12 08:36 61.06503 -170.72348 37896 ft 467 kts 261°
2026-04-12 08:37 61.05287 -170.85469 37897 ft 468 kts 261°
2026-04-12 08:37 61.04056 -170.98612 37899 ft 468 kts 261°
2026-04-12 08:38 61.02813 -171.11734 37926 ft 466 kts 261°
2026-04-12 08:38 61.01562 -171.24792 37916 ft 465 kts 261°
2026-04-12 08:39 61.00300 -171.37830 37916 ft 464 kts 261°
2026-04-12 08:39 60.99027 -171.50840 37909 ft 464 kts 261°
2026-04-12 08:40 60.97745 -171.63810 37906 ft 463 kts 261°
2026-04-12 08:40 60.96449 -171.76774 37920 ft 463 kts 261°
2026-04-12 08:41 60.95144 -171.89708 37920 ft 462 kts 260°
2026-04-12 08:41 60.93826 -172.02622 37913 ft 462 kts 260°
2026-04-12 08:42 60.92502 -172.15474 37914 ft 462 kts 260°
2026-04-12 08:42 60.91159 -172.28382 37918 ft 463 kts 260°
2026-04-12 08:43 60.89804 -172.41270 37923 ft 463 kts 260°
2026-04-12 08:43 60.88435 -172.54161 37935 ft 463 kts 260°
2026-04-12 08:44 60.87053 -172.67050 37931 ft 463 kts 260°
2026-04-12 08:44 60.85658 -172.79933 37935 ft 463 kts 259°
2026-04-12 08:45 60.84252 -172.92786 37942 ft 462 kts 260°
2026-04-12 08:45 60.82842 -173.05563 37945 ft 461 kts 259°
2026-04-12 08:46 60.81417 -173.18347 37949 ft 460 kts 259°
2026-04-12 08:47 60.79263 -173.37453 37946 ft 459 kts 259°
2026-04-12 08:47 60.77816 -173.50147 37944 ft 459 kts 259°
2026-04-12 08:48 60.76357 -173.62825 37943 ft 458 kts 259°
2026-04-12 08:48 60.74888 -173.75470 37944 ft 458 kts 259°
2026-04-12 08:49 60.73406 -173.88117 37947 ft 458 kts 259°
2026-04-12 08:49 60.71913 -174.00748 37966 ft 458 kts 259°
2026-04-12 08:50 60.70409 -174.13354 37966 ft 458 kts 259°
2026-04-12 08:50 60.68892 -174.25961 37966 ft 458 kts 259°
2026-04-12 08:51 60.67364 -174.38544 37968 ft 458 kts 259°
2026-04-12 08:51 60.65823 -174.51132 37967 ft 458 kts 258°
2026-04-12 08:52 60.64277 -174.63653 37942 ft 458 kts 258°
2026-04-12 08:52 60.62718 -174.76168 37998 ft 456 kts 258°
2026-04-12 08:53 60.61150 -174.88652 37997 ft 455 kts 258°
2026-04-12 08:53 60.59574 -175.01090 37993 ft 455 kts 258°
2026-04-12 08:54 60.57989 -175.13503 37987 ft 454 kts 258°
2026-04-12 08:54 60.56391 -175.25909 37982 ft 454 kts 258°
2026-04-12 08:55 60.54787 -175.38270 37997 ft 453 kts 258°
2026-04-12 08:55 60.53172 -175.50613 37997 ft 453 kts 258°
2026-04-12 08:56 60.51547 -175.62929 37995 ft 453 kts 258°
2026-04-12 08:56 60.49912 -175.75225 38007 ft 453 kts 258°
2026-04-12 08:57 60.48264 -175.87523 38002 ft 453 kts 258°
2026-04-12 08:57 60.46604 -175.99808 38022 ft 453 kts 257°
2026-04-12 08:58 60.44933 -176.12082 38027 ft 453 kts 257°
2026-04-12 08:58 60.43251 -176.24336 38031 ft 453 kts 257°
2026-04-12 08:59 60.41563 -176.36547 38030 ft 453 kts 257°
2026-04-12 08:59 60.39872 -176.48680 38031 ft 451 kts 257°
2026-04-12 09:00 60.38164 -176.60847 38038 ft 451 kts 257°
2026-04-12 09:00 60.36456 -176.72923 38053 ft 449 kts 257°
2026-04-12 09:01 60.34731 -176.85031 38053 ft 449 kts 257°
2026-04-12 09:01 60.32998 -176.97105 38058 ft 448 kts 257°
2026-04-12 09:02 60.31266 -177.09087 38064 ft 448 kts 257°
2026-04-12 09:02 60.29521 -177.21109 38057 ft 448 kts 257°
2026-04-12 09:03 60.27769 -177.33125 38046 ft 448 kts 257°
2026-04-12 09:03 60.26009 -177.45118 38071 ft 448 kts 257°
2026-04-12 09:04 60.24236 -177.57109 38067 ft 448 kts 257°
2026-04-12 09:04 60.22453 -177.69083 38078 ft 448 kts 256°
2026-04-12 09:05 60.20624 -177.81026 38080 ft 448 kts 255°
2026-04-12 09:05 60.18758 -177.92930 38085 ft 447 kts 257°
2026-04-12 09:06 60.16911 -178.04855 38091 ft 448 kts 256°
2026-04-12 09:06 60.15085 -178.16752 38131 ft 445 kts 256°
2026-04-12 09:07 60.13265 -178.28604 38115 ft 445 kts 256°
2026-04-12 09:07 60.11419 -178.40418 38110 ft 444 kts 256°
2026-04-12 09:08 60.09562 -178.52189 38110 ft 444 kts 256°
2026-04-12 09:08 60.07700 -178.63908 38104 ft 443 kts 256°
2026-04-12 09:09 60.05827 -178.75621 38111 ft 442 kts 256°
2026-04-12 09:09 60.03945 -178.87307 38111 ft 442 kts 256°
2026-04-12 09:10 60.02054 -178.98981 38115 ft 442 kts 255°
2026-04-12 09:10 60.00153 -179.10634 38116 ft 442 kts 255°
2026-04-12 09:11 59.98242 -179.22277 38124 ft 442 kts 255°
2026-04-12 09:11 59.96319 -179.33915 38124 ft 442 kts 255°
2026-04-12 09:12 59.94384 -179.45548 38124 ft 443 kts 255°
2026-04-12 09:12 59.92439 -179.57165 38134 ft 443 kts 255°
2026-04-12 09:13 59.90481 -179.68783 38136 ft 443 kts 255°
2026-04-12 09:13 59.88527 -179.80312 38076 ft 443 kts 255°
2026-04-12 09:14 59.86554 -179.91873 38148 ft 441 kts 255°
2026-04-12 09:14 59.84577 179.96611 38160 ft 440 kts 255°
2026-04-12 09:15 59.82601 179.85176 38161 ft 440 kts 255°
2026-04-12 09:15 59.80611 179.73733 38157 ft 439 kts 255°
2026-04-12 09:16 59.78615 179.62319 38137 ft 438 kts 255°
2026-04-12 09:16 59.76612 179.50939 38135 ft 437 kts 255°
2026-04-12 09:17 59.74606 179.39591 38148 ft 437 kts 254°
2026-04-12 09:17 59.72541 179.28274 38138 ft 437 kts 254°
2026-04-12 09:18 59.70490 179.16967 38147 ft 437 kts 254°
2026-04-12 09:18 59.68479 179.05827 38147 ft 437 kts 254°
2026-04-12 09:19 59.66437 178.94556 38172 ft 437 kts 254°
2026-04-12 09:19 59.64378 178.83266 38177 ft 437 kts 254°
2026-04-12 09:20 59.61268 178.66345 38181 ft 437 kts 253°
2026-04-12 09:21 59.58129 178.49484 38196 ft 436 kts 254°
2026-04-12 09:21 59.56030 178.38301 38194 ft 435 kts 253°
2026-04-12 09:22 59.53929 178.27170 38189 ft 435 kts 253°
2026-04-12 09:22 59.51830 178.16108 38190 ft 434 kts 253°
2026-04-12 09:23 59.49709 178.05001 38177 ft 434 kts 253°
2026-04-12 09:23 59.47584 177.93938 38179 ft 433 kts 253°
2026-04-12 09:24 59.45453 177.82898 38182 ft 433 kts 253°
2026-04-12 09:24 59.43312 177.71870 38185 ft 433 kts 253°
2026-04-12 09:25 59.41160 177.60850 38188 ft 433 kts 253°
2026-04-12 09:25 59.38998 177.49840 38188 ft 433 kts 253°
2026-04-12 09:26 59.36824 177.38833 38192 ft 433 kts 252°
2026-04-12 09:26 59.34647 177.27871 38196 ft 434 kts 252°
2026-04-12 09:27 59.32454 177.16888 38203 ft 434 kts 252°
2026-04-12 09:27 59.30251 177.05912 38204 ft 434 kts 252°
2026-04-12 09:28 59.28039 176.94952 38205 ft 434 kts 252°
2026-04-12 09:28 59.25815 176.83997 38208 ft 434 kts 252°
2026-04-12 09:29 59.23584 176.73066 38206 ft 434 kts 252°
2026-04-12 09:29 59.21344 176.62148 38213 ft 434 kts 252°
2026-04-12 09:30 59.19094 176.51243 38212 ft 434 kts 252°
2026-04-12 09:30 59.16837 176.40356 38215 ft 434 kts 252°
2026-04-12 09:31 59.14571 176.29489 38211 ft 434 kts 251°
2026-04-12 09:31 59.12294 176.18624 38212 ft 434 kts 251°
2026-04-12 09:32 59.10006 176.07769 38216 ft 434 kts 251°
2026-04-12 09:32 59.07711 175.96934 38215 ft 434 kts 251°
2026-04-12 09:33 59.05407 175.86119 38212 ft 434 kts 251°
2026-04-12 09:33 59.03095 175.75317 38213 ft 434 kts 251°
2026-04-12 09:34 59.00791 175.64610 38217 ft 434 kts 251°
2026-04-12 09:34 58.98461 175.53838 38202 ft 434 kts 250°
2026-04-12 09:35 58.96121 175.43079 38193 ft 434 kts 250°
2026-04-12 09:35 58.93773 175.32335 38219 ft 434 kts 250°
2026-04-12 09:36 58.91412 175.21589 38219 ft 435 kts 250°
2026-04-12 09:36 58.89039 175.10840 38226 ft 436 kts 250°
2026-04-12 09:37 58.86652 175.00086 38228 ft 436 kts 250°
2026-04-12 09:37 58.84255 174.89344 38208 ft 437 kts 250°
2026-04-12 09:38 58.81843 174.78587 38224 ft 438 kts 250°
2026-04-12 09:38 58.79417 174.67821 38232 ft 439 kts 250°
2026-04-12 09:39 58.76977 174.57053 38233 ft 439 kts 249°
2026-04-12 09:39 58.74527 174.46290 38235 ft 440 kts 249°
2026-04-12 09:40 58.72068 174.35546 38236 ft 439 kts 249°
2026-04-12 09:40 58.69602 174.24824 38235 ft 439 kts 249°
2026-04-12 09:41 58.67126 174.14114 38233 ft 439 kts 249°
2026-04-12 09:41 58.64650 174.03454 38230 ft 439 kts 249°
2026-04-12 09:42 58.62160 173.92791 38227 ft 438 kts 249°
2026-04-12 09:42 58.59664 173.82151 38214 ft 438 kts 249°
2026-04-12 09:43 58.54646 173.60921 38220 ft 439 kts 249°
2026-04-12 09:44 58.52115 173.50291 38225 ft 440 kts 249°
2026-04-12 09:44 58.49570 173.39656 38228 ft 441 kts 249°
2026-04-12 09:45 58.47029 173.29087 38233 ft 441 kts 248°
2026-04-12 09:45 58.44462 173.18464 38234 ft 442 kts 248°
2026-04-12 09:46 58.41883 173.07843 38233 ft 442 kts 248°
2026-04-12 09:46 58.39298 172.97249 38233 ft 442 kts 248°
2026-04-12 09:47 58.36703 172.86666 38235 ft 441 kts 248°
2026-04-12 09:47 58.34101 172.76105 38233 ft 441 kts 248°
2026-04-12 09:48 58.31492 172.65568 38229 ft 441 kts 248°
2026-04-12 09:48 58.28876 172.55050 38212 ft 441 kts 248°
2026-04-12 09:49 58.26267 172.44612 38227 ft 440 kts 248°
2026-04-12 09:49 58.23650 172.34191 38240 ft 439 kts 247°
2026-04-12 09:50 58.21023 172.23776 38229 ft 439 kts 247°
2026-04-12 09:50 58.18392 172.13399 38227 ft 438 kts 247°
2026-04-12 09:51 58.15748 172.03016 38227 ft 438 kts 247°
2026-04-12 09:51 58.13100 171.92663 38225 ft 438 kts 246°
2026-04-12 09:52 58.10444 171.82332 38217 ft 438 kts 246°
2026-04-12 09:52 58.07780 171.72019 38216 ft 438 kts 246°
2026-04-12 09:53 58.05106 171.61715 38216 ft 438 kts 246°
2026-04-12 09:53 58.02424 171.51423 38219 ft 438 kts 246°
2026-04-12 09:54 57.99734 171.41149 38216 ft 438 kts 246°
2026-04-12 09:54 57.97035 171.30887 38217 ft 438 kts 246°
2026-04-12 09:55 57.94326 171.20636 38214 ft 438 kts 246°
2026-04-12 09:55 57.91607 171.10392 38210 ft 438 kts 245°
2026-04-12 09:56 57.88887 171.00193 38213 ft 438 kts 245°
2026-04-12 09:56 57.86156 170.89997 38214 ft 437 kts 245°
2026-04-12 09:57 57.83422 170.79834 38210 ft 437 kts 245°
2026-04-12 09:57 57.80679 170.69687 38203 ft 437 kts 245°
2026-04-12 09:58 57.77926 170.59547 38197 ft 437 kts 245°
2026-04-12 09:58 57.75165 170.49424 38191 ft 437 kts 245°
2026-04-12 09:59 57.72400 170.39327 38181 ft 437 kts 244°
2026-04-12 09:59 57.69626 170.29245 38193 ft 437 kts 244°
2026-04-12 10:00 57.66843 170.19174 38183 ft 437 kts 244°
2026-04-12 10:00 57.64050 170.09115 38181 ft 437 kts 244°
2026-04-12 10:01 57.61251 169.99075 38180 ft 437 kts 244°
2026-04-12 10:01 57.58445 169.89053 38181 ft 437 kts 244°
2026-04-12 10:02 57.55625 169.79024 38177 ft 438 kts 244°
2026-04-12 10:02 57.52799 169.69018 38174 ft 438 kts 243°
2026-04-12 10:03 57.49962 169.59020 38171 ft 438 kts 243°
2026-04-12 10:03 57.47118 169.49039 38168 ft 437 kts 243°
2026-04-12 10:04 57.44269 169.39084 38151 ft 438 kts 243°
2026-04-12 10:04 57.41412 169.29143 38146 ft 438 kts 243°
2026-04-12 10:05 57.38546 169.19215 38165 ft 437 kts 243°
2026-04-12 10:05 57.35675 169.09308 38148 ft 438 kts 242°
2026-04-12 10:06 57.32792 168.99404 38135 ft 438 kts 242°
2026-04-12 10:06 57.29902 168.89519 38130 ft 438 kts 242°
2026-04-12 10:07 57.27005 168.79653 38137 ft 438 kts 242°
2026-04-12 10:07 57.24096 168.69788 38150 ft 438 kts 242°
2026-04-12 10:08 57.21184 168.59954 38149 ft 438 kts 242°
2026-04-12 10:08 57.18263 168.50128 38126 ft 438 kts 242°
2026-04-12 10:09 57.15336 168.40325 38121 ft 438 kts 242°
2026-04-12 10:09 57.12400 168.30534 38120 ft 438 kts 242°
2026-04-12 10:10 57.09456 168.20759 38104 ft 438 kts 242°
2026-04-12 10:10 57.06506 168.11002 38103 ft 438 kts 241°
2026-04-12 10:11 57.03546 168.01252 38114 ft 438 kts 241°
2026-04-12 10:11 57.00574 167.91505 38107 ft 439 kts 241°
2026-04-12 10:12 56.97589 167.81755 38107 ft 439 kts 241°
2026-04-12 10:12 56.94597 167.72018 38108 ft 439 kts 241°
2026-04-12 10:13 56.91605 167.62301 38101 ft 439 kts 241°
2026-04-12 10:13 56.88602 167.52583 38093 ft 440 kts 241°
2026-04-12 10:14 56.85591 167.42876 38078 ft 440 kts 240°
2026-04-12 10:14 56.82569 167.33174 38080 ft 440 kts 240°
2026-04-12 10:15 56.79553 167.23476 38075 ft 440 kts 241°
2026-04-12 10:15 56.76476 167.13861 38076 ft 440 kts 240°
2026-04-12 10:16 56.73447 167.04180 38031 ft 441 kts 240°
2026-04-12 10:16 56.70421 166.94494 38060 ft 441 kts 240°
2026-04-12 10:17 56.67378 166.84832 38058 ft 441 kts 240°
2026-04-12 10:17 56.64326 166.75192 38055 ft 441 kts 240°
2026-04-12 10:18 56.61264 166.65560 38054 ft 441 kts 240°
2026-04-12 10:18 56.58196 166.55950 38066 ft 441 kts 240°
2026-04-12 10:19 56.55118 166.46343 38048 ft 441 kts 240°
2026-04-12 10:19 56.52033 166.36758 38038 ft 441 kts 239°
2026-04-12 10:20 56.48943 166.27192 38037 ft 441 kts 239°
2026-04-12 10:20 56.45840 166.17628 38033 ft 441 kts 239°
2026-04-12 10:21 56.42734 166.08090 38032 ft 441 kts 239°
2026-04-12 10:21 56.39620 165.98565 38030 ft 441 kts 239°
2026-04-12 10:22 56.36497 165.89052 38028 ft 441 kts 239°
2026-04-12 10:22 56.33369 165.79564 38013 ft 441 kts 239°
2026-04-12 10:23 56.30232 165.70083 38013 ft 441 kts 239°
2026-04-12 10:23 56.27090 165.60624 37969 ft 441 kts 239°
2026-04-12 10:24 56.23949 165.51206 38020 ft 440 kts 238°
2026-04-12 10:24 56.20805 165.41818 38014 ft 439 kts 238°
2026-04-12 10:25 56.17656 165.32448 37997 ft 439 kts 238°
2026-04-12 10:25 56.14504 165.23105 37990 ft 438 kts 238°
2026-04-12 10:26 56.11352 165.13800 37987 ft 438 kts 238°
2026-04-12 10:26 56.08190 165.04499 37978 ft 438 kts 237°
2026-04-12 10:27 56.05018 164.95210 37969 ft 439 kts 237°
2026-04-12 10:27 56.01835 164.85921 37970 ft 439 kts 237°
2026-04-12 10:28 55.98639 164.76617 37972 ft 440 kts 237°
2026-04-12 10:28 55.95427 164.67333 37976 ft 441 kts 237°
2026-04-12 10:29 55.92211 164.58058 37970 ft 441 kts 237°
2026-04-12 10:29 55.88979 164.48769 37958 ft 442 kts 237°
2026-04-12 10:30 55.85734 164.39480 37962 ft 443 kts 237°
2026-04-12 10:30 55.82476 164.30193 37960 ft 443 kts 237°
2026-04-12 10:31 55.79216 164.20931 37959 ft 443 kts 237°
2026-04-12 10:31 55.75948 164.11683 37958 ft 443 kts 237°
2026-04-12 10:32 55.72667 164.02435 37931 ft 444 kts 237°
2026-04-12 10:32 55.69384 163.93215 37932 ft 444 kts 237°
2026-04-12 10:33 55.66085 163.83985 37928 ft 445 kts 237°
2026-04-12 10:33 55.62771 163.74748 37932 ft 445 kts 236°
2026-04-12 10:34 55.59449 163.65525 37930 ft 446 kts 236°
2026-04-12 10:34 55.56117 163.56308 37934 ft 446 kts 236°
2026-04-12 10:35 55.52776 163.47103 37935 ft 446 kts 236°
2026-04-12 10:35 55.49428 163.37910 37924 ft 446 kts 236°
2026-04-12 10:36 55.46074 163.28737 37921 ft 446 kts 236°
2026-04-12 10:36 55.42713 163.19578 37919 ft 446 kts 236°
2026-04-12 10:37 55.39348 163.10442 37944 ft 445 kts 235°
2026-04-12 10:37 55.35980 163.01334 37934 ft 444 kts 235°
2026-04-12 10:38 55.32621 162.92259 37929 ft 444 kts 236°
2026-04-12 10:38 55.29507 162.82999 37911 ft 444 kts 238°
2026-04-12 10:39 55.26427 162.73672 37902 ft 443 kts 238°
2026-04-12 10:39 55.23306 162.64388 37875 ft 443 kts 237°
2026-04-12 10:40 55.20169 162.55137 37885 ft 443 kts 237°
2026-04-12 10:40 55.17024 162.45901 37884 ft 443 kts 237°
2026-04-12 10:41 55.13873 162.36678 37886 ft 443 kts 237°
2026-04-12 10:41 55.10711 162.27461 37887 ft 443 kts 237°
2026-04-12 10:42 55.07542 162.18255 37910 ft 444 kts 236°
2026-04-12 10:42 55.04352 162.09025 37904 ft 445 kts 236°
2026-04-12 10:43 54.99551 161.95198 37916 ft 446 kts 236°
2026-04-12 10:43 54.96333 161.85972 37918 ft 447 kts 236°
2026-04-12 10:44 54.93106 161.76758 37918 ft 446 kts 236°
2026-04-12 10:44 54.89877 161.67570 37891 ft 447 kts 236°
2026-04-12 10:45 54.86629 161.58364 37887 ft 447 kts 236°
2026-04-12 10:45 54.83380 161.49188 37893 ft 448 kts 236°
2026-04-12 10:46 54.80117 161.40009 37871 ft 448 kts 236°
2026-04-12 10:46 54.76883 161.30963 37871 ft 448 kts 235°
2026-04-12 10:47 54.73604 161.21809 37816 ft 449 kts 235°
2026-04-12 10:47 54.70311 161.12659 37820 ft 450 kts 235°
2026-04-12 10:48 54.67001 161.03493 37805 ft 450 kts 235°
2026-04-12 10:48 54.63687 160.94348 37812 ft 451 kts 235°
2026-04-12 10:49 54.60363 160.85209 37793 ft 451 kts 235°
2026-04-12 10:49 54.58704 160.80657 37615 ft 447 kts 234°
2026-04-12 10:49 54.57059 160.76153 37359 ft 444 kts 234°
2026-04-12 10:50 54.55412 160.71653 37088 ft 444 kts 234°
2026-04-12 10:50 54.53769 160.67177 36827 ft 443 kts 234°
2026-04-12 10:50 54.52130 160.62716 36574 ft 442 kts 234°
2026-04-12 10:50 54.50488 160.58255 36323 ft 441 kts 234°
2026-04-12 10:51 54.48846 160.53803 36065 ft 440 kts 234°
2026-04-12 10:51 54.47215 160.49389 35823 ft 439 kts 233°
2026-04-12 10:51 54.45583 160.44978 35581 ft 438 kts 233°
2026-04-12 10:51 54.43951 160.40577 35323 ft 436 kts 233°
2026-04-12 10:52 54.42328 160.36207 35115 ft 436 kts 233°
2026-04-12 10:52 54.40693 160.31817 34879 ft 438 kts 232°
2026-04-12 10:52 54.39054 160.27424 34655 ft 438 kts 232°
2026-04-12 10:52 54.37413 160.23030 34418 ft 437 kts 232°
2026-04-12 10:53 54.35776 160.18651 34182 ft 436 kts 232°
2026-04-12 10:53 54.34146 160.14311 33949 ft 432 kts 232°
2026-04-12 10:53 54.32526 160.10012 33708 ft 430 kts 232°
2026-04-12 10:53 54.30909 160.05726 33437 ft 428 kts 232°
2026-04-12 10:54 54.29303 160.01475 33165 ft 426 kts 231°
2026-04-12 10:54 54.27703 159.97222 32882 ft 424 kts 231°
2026-04-12 10:54 54.26111 159.93011 32690 ft 423 kts 231°
2026-04-12 10:54 54.24511 159.88777 32438 ft 426 kts 231°
2026-04-12 10:55 54.22866 159.84606 32155 ft 420 kts 227°
2026-04-12 10:55 54.21032 159.80794 31906 ft 414 kts 222°
2026-04-12 10:55 54.19014 159.77340 31657 ft 408 kts 217°
2026-04-12 10:55 54.16855 159.74279 31294 ft 403 kts 213°
2026-04-12 10:56 54.14656 159.71365 30833 ft 398 kts 213°
2026-04-12 10:56 54.12495 159.68478 30360 ft 392 kts 213°
2026-04-12 10:56 54.10379 159.65660 29879 ft 385 kts 213°
2026-04-12 10:56 54.08278 159.62847 29353 ft 381 kts 213°
2026-04-12 10:57 54.06308 159.60203 28906 ft 374 kts 213°
2026-04-12 10:57 54.04284 159.57492 28443 ft 368 kts 212°
2026-04-12 10:57 54.02293 159.54829 27986 ft 363 kts 211°
2026-04-12 10:57 54.00320 159.52201 27497 ft 359 kts 211°
2026-04-12 10:58 53.98362 159.49598 27005 ft 356 kts 211°
2026-04-12 10:58 53.96392 159.46992 26593 ft 367 kts 211°
2026-04-12 10:58 53.94378 159.44330 26161 ft 368 kts 211°
2026-04-12 10:58 53.92368 159.41668 25681 ft 366 kts 211°
2026-04-12 10:59 53.90371 159.39018 25224 ft 363 kts 211°
2026-04-12 10:59 53.88396 159.36400 24758 ft 359 kts 211°
2026-04-12 10:59 53.86436 159.33809 24282 ft 357 kts 211°
2026-04-12 10:59 53.84491 159.31243 23829 ft 354 kts 211°
2026-04-12 11:00 53.82562 159.28701 23382 ft 351 kts 211°
2026-04-12 11:00 53.80640 159.26174 22879 ft 350 kts 210°
2026-04-12 11:00 53.78725 159.23660 22447 ft 351 kts 211°
2026-04-12 11:00 53.76801 159.21138 22016 ft 349 kts 211°
2026-04-12 11:01 53.74896 159.18640 21548 ft 346 kts 211°
2026-04-12 11:01 53.73012 159.16171 21106 ft 343 kts 211°
2026-04-12 11:01 53.71136 159.13717 20645 ft 341 kts 211°
2026-04-12 11:01 53.69272 159.11283 20210 ft 339 kts 210°
2026-04-12 11:02 53.67414 159.08859 19768 ft 338 kts 210°
2026-04-12 11:02 53.65554 159.06485 19316 ft 335 kts 206°
2026-04-12 11:02 53.63555 159.04593 18885 ft 326 kts 197°
2026-04-12 11:02 53.61439 159.03365 18457 ft 317 kts 187°
2026-04-12 11:03 53.59283 159.02647 18052 ft 319 kts 185°
2026-04-12 11:03 53.57108 159.01928 17567 ft 319 kts 185°
2026-04-12 11:03 53.54954 159.01185 17175 ft 315 kts 185°
2026-04-12 11:03 53.52827 159.00449 16763 ft 311 kts 185°
2026-04-12 11:04 53.50724 158.99725 16348 ft 307 kts 185°
2026-04-12 11:04 53.48648 158.99016 15945 ft 305 kts 185°
2026-04-12 11:04 53.46582 158.98315 15536 ft 303 kts 185°
2026-04-12 11:04 53.44535 158.97622 15146 ft 301 kts 185°
2026-04-12 11:05 53.42491 158.96930 14749 ft 299 kts 185°
2026-04-12 11:05 53.40463 158.96244 14353 ft 297 kts 185°
2026-04-12 11:05 53.38439 158.95561 13920 ft 297 kts 185°
2026-04-12 11:05 53.36413 158.94879 13537 ft 300 kts 185°
2026-04-12 11:06 53.34369 158.94189 13110 ft 298 kts 185°
2026-04-12 11:06 53.32354 158.93508 12722 ft 296 kts 185°
2026-04-12 11:06 53.30342 158.92829 12335 ft 295 kts 185°
2026-04-12 11:06 53.28342 158.92155 11947 ft 293 kts 185°
2026-04-12 11:07 53.26355 158.91486 11549 ft 292 kts 185°
2026-04-12 11:07 53.24368 158.90819 11165 ft 292 kts 185°
2026-04-12 11:07 53.22384 158.90153 10794 ft 290 kts 185°
2026-04-12 11:07 53.20432 158.89493 10622 ft 282 kts 184°
2026-04-12 11:08 53.18559 158.88856 10611 ft 271 kts 184°
2026-04-12 11:08 53.16722 158.88242 10381 ft 269 kts 184°
2026-04-12 11:08 53.14901 158.87639 9997 ft 268 kts 183°
2026-04-12 11:08 53.13090 158.87041 9596 ft 268 kts 184°
2026-04-12 11:09 53.11255 158.86434 9153 ft 271 kts 184°
2026-04-12 11:09 53.09417 158.85825 8822 ft 267 kts 186°
2026-04-12 11:09 53.07611 158.85219 8483 ft 264 kts 186°
2026-04-12 11:09 53.05814 158.84619 8145 ft 264 kts 186°
2026-04-12 11:10 53.04010 158.84021 7795 ft 265 kts 185°
2026-04-12 11:10 53.02198 158.83419 7450 ft 265 kts 185°
2026-04-12 11:10 53.00392 158.82816 7116 ft 266 kts 185°
2026-04-12 11:10 52.98580 158.82212 6834 ft 267 kts 187°
2026-04-12 11:11 52.96887 158.80914 6734 ft 276 kts 213°
2026-04-12 11:11 52.95700 158.78439 6650 ft 277 kts 238°
2026-04-12 11:11 52.94969 158.75524 6563 ft 271 kts 245°
2026-04-12 11:11 52.94353 158.72673 6454 ft 263 kts 246°
2026-04-12 11:12 52.93737 158.69891 6357 ft 253 kts 245°
2026-04-12 11:12 52.93101 158.67226 6249 ft 248 kts 243°
2026-04-12 11:12 52.92586 158.64495 5963 ft 254 kts 266°
2026-04-12 11:12 52.92969 158.61681 5567 ft 251 kts 307°
2026-04-12 11:13 52.94197 158.59900 5120 ft 223 kts 350°
2026-04-12 11:13 52.95627 158.59348 4692 ft 208 kts 360°
2026-04-12 11:13 52.97017 158.58724 4226 ft 206 kts 353°
2026-04-12 11:13 52.98306 158.57898 3771 ft 192 kts 351°
2026-04-12 11:14 52.99508 158.57071 3392 ft 181 kts 351°
2026-04-12 11:14 53.00658 158.56291 3159 ft 179 kts 353°
2026-04-12 11:14 53.01812 158.55501 2923 ft 180 kts 353°
2026-04-12 11:14 53.02959 158.54709 2689 ft 177 kts 353°
2026-04-12 11:15 53.04079 158.53936 2472 ft 170 kts 353°
2026-04-12 11:15 53.05097 158.53215 2239 ft 148 kts 354°
2026-04-12 11:15 53.06009 158.52598 2058 ft 140 kts 347°
2026-04-12 11:15 53.06921 158.51988 1862 ft 143 kts 342°
2026-04-12 11:16 53.07829 158.51352 1678 ft 141 kts 341°
2026-04-12 11:16 53.08711 158.50745 1479 ft 137 kts 342°
2026-04-12 11:16 53.09563 158.50156 1305 ft 136 kts 339°
2026-04-12 11:16 53.10425 158.49562 1143 ft 134 kts 338°
2026-04-12 11:17 53.11294 158.48965 974 ft 139 kts 338°
2026-04-12 11:17 53.12160 158.48364 819 ft 140 kts 338°
2026-04-12 11:17 53.12935 158.47831 677 ft 142 kts 338°
2026-04-12 11:17 53.13822 158.47215 507 ft 143 kts 337°
2026-04-12 11:18 53.14659 158.46639 337 ft 141 kts 336°
2026-04-12 11:18 53.15560 158.46029 167 ft 138 kts 337°
2026-04-12 11:18 53.16382 158.45475 124 ft 109 kts 336°
2026-04-12 11:18 53.16871 158.45118 127 ft 49 kts 337°
2026-04-12 11:19 53.17168 158.44914 129 ft 46 kts 337°
2026-04-12 11:19 53.17447 158.44720 126 ft 41 kts 337°
2026-04-12 11:19 53.17699 158.44544 128 ft 37 kts 337°
2026-04-12 11:19 53.17966 158.44359 124 ft 45 kts 337°
2026-04-12 11:20 53.18179 158.44210 126 ft 31 kts 337°
2026-04-12 11:20 53.18313 158.44000 127 ft 22 kts 275°
2026-04-12 11:20 53.18270 158.43779 134 ft 21 kts 249°
2026-04-12 11:20 53.18196 158.43580 134 ft 21 kts 225°
2026-04-12 11:21 53.18171 158.43463 136 ft 0 kts 260°